TimeAKDT,TemperatureF,Dew PointF,Humidity,Sea Level PressureIn,VisibilityMPH,Wind Direction,Wind SpeedMPH,Gust SpeedMPH,PrecipitationIn,Events,Conditions,WindDirDegrees,DateUTC
12:18 AM,44.6,42.8,93,29.45,10.0,Calm,Calm,-,N/A,,Overcast,0,2011-10-09 08:18:00
12:38 AM,44.6,42.8,93,29.47,9.0,WSW,3.5,-,0.00,Rain,Light Rain,240,2011-10-09 08:38:00
12:53 AM,44.1,43.0,96,29.48,8.0,Calm,Calm,-,0.00,Rain,Light Rain,0,2011-10-09 08:53:00
1:11 AM,44.6,42.8,93,29.49,2.5,NW,6.9,-,0.01,Rain,Light Rain,310,2011-10-09 09:11:00
1:16 AM,44.6,42.8,93,29.49,3.0,NW,8.1,-,0.01,Rain,Light Rain,320,2011-10-09 09:16:00
1:27 AM,44.6,42.8,93,29.50,4.0,NW,6.9,-,0.02,Rain,Light Rain,320,2011-10-09 09:27:00
1:35 AM,44.6,42.8,93,29.50,5.0,NNW,6.9,-,0.02,,Overcast,330,2011-10-09 09:35:00
1:47 AM,44.6,42.8,93,29.51,9.0,NNW,8.1,-,0.02,Rain,Light Rain,330,2011-10-09 09:47:00
1:53 AM,44.1,43.0,96,29.51,10.0,NW,8.1,-,0.02,Rain,Light Rain,320,2011-10-09 09:53:00
2:53 AM,45.0,42.1,90,29.54,10.0,NNW,5.8,-,0.00,,Overcast,330,2011-10-09 10:53:00
3:53 AM,43.0,42.1,97,29.57,10.0,East,3.5,-,N/A,,Overcast,80,2011-10-09 11:53:00
4:45 AM,42.8,42.8,100,29.59,10.0,East,4.6,-,0.01,,Overcast,90,2011-10-09 12:45:00
4:53 AM,43.0,42.1,97,29.60,10.0,East,4.6,-,0.01,,Overcast,80,2011-10-09 12:53:00
5:36 AM,42.8,42.8,100,29.61,10.0,East,4.6,-,0.01,Rain,Light Rain,90,2011-10-09 13:36:00
5:53 AM,43.0,41.0,93,29.61,10.0,East,6.9,-,0.01,,Overcast,80,2011-10-09 13:53:00
6:00 AM,42.8,42.8,100,29.61,10.0,East,3.5,-,N/A,,Overcast,100,2011-10-09 14:00:00
6:44 AM,42.8,42.8,100,29.63,9.0,East,4.6,-,0.06,Rain,Light Rain,100,2011-10-09 14:44:00
6:53 AM,43.0,42.1,97,29.63,10.0,ESE,5.8,-,0.06,Rain,Light Rain,110,2011-10-09 14:53:00
7:53 AM,43.0,42.1,97,29.65,10.0,East,4.6,-,0.01,,Overcast,100,2011-10-09 15:53:00
8:07 AM,42.8,42.8,100,29.65,10.0,ESE,4.6,-,N/A,,Overcast,110,2011-10-09 16:07:00
8:26 AM,44.6,42.8,93,29.66,10.0,SE,6.9,-,N/A,,Overcast,130,2011-10-09 16:26:00
8:53 AM,44.1,43.0,96,29.66,10.0,ESE,3.5,-,N/A,,Mostly Cloudy,120,2011-10-09 16:53:00
9:53 AM,45.0,43.0,93,29.68,9.0,East,6.9,-,0.02,,Overcast,100,2011-10-09 17:53:00
10:00 AM,44.6,42.8,93,29.68,10.0,ESE,5.8,-,N/A,,Overcast,110,2011-10-09 18:00:00
10:53 AM,46.0,41.0,83,29.69,10.0,ESE,11.5,-,0.00,,Overcast,110,2011-10-09 18:53:00
11:53 AM,46.9,41.0,80,29.70,10.0,ESE,9.2,-,N/A,,Overcast,120,2011-10-09 19:53:00
12:53 PM,48.0,43.0,83,29.70,10.0,ESE,5.8,-,0.02,,Overcast,120,2011-10-09 20:53:00
1:20 PM,48.2,42.8,82,29.70,10.0,SSE,4.6,-,0.00,Rain,Light Rain,160,2011-10-09 21:20:00
1:53 PM,48.9,43.0,80,29.69,10.0,ESE,6.9,-,0.00,,Overcast,110,2011-10-09 21:53:00
2:33 PM,48.2,42.8,82,29.69,6.0,SE,8.1,-,0.01,Rain,Rain,140,2011-10-09 22:33:00
2:40 PM,46.4,42.8,87,29.69,6.0,SSE,8.1,-,0.02,Rain,Light Rain,160,2011-10-09 22:40:00
2:53 PM,46.9,44.1,90,29.69,7.0,SSW,9.2,-,0.03,Rain,Light Rain,200,2011-10-09 22:53:00
3:53 PM,48.0,43.0,83,29.68,10.0,ESE,4.6,-,0.01,,Overcast,110,2011-10-09 23:53:00
4:53 PM,48.9,41.0,74,29.67,10.0,ESE,6.9,-,N/A,,Overcast,120,2011-10-10 00:53:00
5:53 PM,48.0,41.0,77,29.65,10.0,ESE,9.2,-,N/A,,Overcast,110,2011-10-10 01:53:00
6:53 PM,46.0,39.9,79,29.64,10.0,East,4.6,-,N/A,,Scattered Clouds,90,2011-10-10 02:53:00
7:53 PM,45.0,41.0,86,29.63,10.0,East,6.9,-,N/A,,Mostly Cloudy,90,2011-10-10 03:53:00
8:53 PM,46.0,39.0,76,29.61,10.0,ESE,9.2,-,N/A,,Scattered Clouds,110,2011-10-10 04:53:00
9:53 PM,46.0,39.0,76,29.60,10.0,East,9.2,-,N/A,,Partly Cloudy,100,2011-10-10 05:53:00
10:53 PM,46.0,39.9,79,29.58,10.0,East,9.2,-,N/A,,Overcast,100,2011-10-10 06:53:00
11:53 PM,46.0,37.9,73,29.57,10.0,Calm,Calm,-,N/A,,Overcast,0,2011-10-10 07:53:00